Погода в Рождествене

Россия / Ивановская область     57°15′16″N   41°22′07″E
темп.,
°C
ветер,
м/с
пор.,
м/с
влажн.,
%
обл.,
%
осадки,
мм/ч
давл.,
гПа
погр.,
м
8 мая, сб
сб800:00+5ю3566100 0.0 101479
03:00+5ю387398 0.0 1014127
06:00+6ююв4127397 0.0 1014289
09:00+12ююв61154100 0.0 10131020
12:00+13ююв71153100 0.0 10122139
15:00+13ююв71255100 0.0 10101949
18:00+9юв71381100 2.0 10081168
21:00+9юв61389100 5.5 1005905
9 мая, вс
вс900:00+9юв71594100 5.3 1002894
03:00+10ююв61196100 5.5 1001510
06:00+10ююв5995100 0.3 1002685
09:00+9ю5991100 0.6 1003757
12:00+4зсз71196100 0.5 1008562
15:00+4сз71596100 0.6 1012789
18:00+7сз61182100 0.1 10151114
21:00+4сз51284100 0.2 1018366
10 мая, пн
пн1000:00+2сз410855 0.0 1021182
03:00+2сз37890 0.0 1024127
06:00+3сз38860 0.0 1027223
09:00+9ссз35610 0.0 1028664
12:00+12ссз34473 0.0 10291333
15:00+13сз23455 0.0 10291416
18:00+13сз12565 0.0 10291054
21:00+8ю116310 0.0 103010
11 мая, вт
вт1100:00+8ююз126299 0.0 103113
03:00+7юз116427 0.0 103210
06:00+8ю237232 0.0 103277
09:00+13ююв23565 0.0 1033508
12:00+16юв22495 0.0 1032953
15:00+18в22495 0.0 10311027
18:00+17всв236238 0.0 1030340
21:00+11юв227777 0.0 103120
12 мая, ср
ср1200:00+10вюв2374100 0.0 103124
03:00+9вюв3377100 0.0 103134
06:00+10в2579100 0.0 1031141
09:00+15вюв475954 0.0 1031537
12:00+18вюв564721 0.0 10301082
15:00+20вюв45440 0.0 10291079
18:00+18вюв35600 0.0 1028205
21:00+13в33693 0.0 102840